DW9007 Weather Reports


Display with metric or nautical units.
time (UTC)temp
F
wind
direction
speed
MPH
gust
MPH
rain 1hr
in
rain 24hr
in
rain mn
in
humidity
%
barometer
mb
20260901071521 74 80 0.0 0.0 0.00 0.00 0.00 91 1016.3
20260901070056 74 80 0.0 0.0 0.00 0.00 0.00 91 1016.2
20260901064553 74 80 0.0 0.0 0.00 0.00 0.00 91 1016.4
20260901063034 75 80 0.0 0.0 0.00 0.00 0.00 91 1016.3
20260901061527 75 80 0.0 0.0 0.00 0.00 0.00 90 1016.4
20260901060008 75 80 0.0 0.0 0.00 0.00 0.00 90 1016.4
20260901054507 75 80 0.0 0.0 0.00 0.00 0.00 90 1016.4
20260901053104 75 80 0.0 0.0 0.00 0.00 0.00 89 1016.5
20260901051550 76 80 0.0 0.0 0.00 0.00 0.00 89 1016.6
20260901050031 76 80 0.0 0.0 0.00 0.00 0.00 88 1016.5
20260901044533 76 80 0.0 0.0 0.00 0.00 0.00 88 1016.5
20260901043015 76 80 0.0 0.0 0.00 0.00 0.00 87 1016.6
20260901041513 77 80 0.0 0.0 0.00 0.00 0.00 86 1016.5
20260901040016 77 80 0.0 0.0 0.00 0.00 0.00 85 1016.6
20260901034512 77 80 0.0 0.0 0.00 0.00 0.00 85 1016.6
20260901033010 77 80 0.0 0.0 0.00 0.00 0.00 85 1016.6
20260901031508 78 80 0.0 0.0 0.00 0.00 0.00 85 1016.6
20260901030006 78 80 0.0 0.0 0.00 0.00 0.00 84 1016.8
20260901024510 78 80 0.0 0.0 0.00 0.00 0.00 83 1016.8
20260901023046 79 80 0.0 0.0 0.00 0.00 0.00 82 1016.7
20260901021543 79 80 0.0 0.0 0.00 0.00 0.00 81 1016.7
20260901020024 80 80 0.0 0.0 0.00 0.00 0.00 79 1016.5
20260901014524 80 80 0.0 0.0 0.00 0.00 0.00 78 1016.3
20260901013002 81 80 0.0 0.0 0.00 0.00 0.00 78 1016.1
20260901011606 81 80 0.0 0.0 0.00 0.00 0.00 75 1015.9
20260901010057 82 80 0.0 0.0 0.00 0.00 0.00 74 1015.7
20260901004540 83 80 0.0 0.0 0.00 0.00 0.00 72 1015.6
20260901003037 84 80 0.0 0.0 0.00 0.00 0.00 71 1015.5
20260901001524 85 80 0.0 0.0 0.00 0.00 0.00 69 1015.5
20260901000015 87 80 0.0 0.0 0.00 0.00 0.00 68 1015.5
20260831234511 88 80 0.0 2.0 0.00 0.00 0.00 66 1015.6
20260831233006 89 83 0.0 1.0 0.00 0.00 0.00 64 1015.6
20260831231503 90 83 0.0 2.0 0.00 0.00 0.00 63 1015.5
20260831230002 90 80 0.0 2.0 0.00 0.00 0.00 60 1015.7
20260831224501 91 79 0.0 3.0 0.00 0.00 0.00 60 1015.7
20260831223001 91 63 0.0 3.0 0.00 0.00 0.00 59 1015.7
20260831221542 90 78 0.0 2.0 0.00 0.00 0.00 62 1015.6
20260831220041 91 105 0.0 7.0 0.00 0.00 0.00 58 1015.7
20260831214549 91 98 0.0 4.0 0.00 0.00 0.00 60 1015.8
20260831213026 91 92 0.0 4.0 0.00 0.00 0.00 61 1015.9
20260831211525 91 106 0.0 3.0 0.00 0.00 0.00 59 1016.2
20260831210026 92 120 0.0 7.0 0.00 0.00 0.00 60 1016.2
20260831204522 92 74 2.0 7.0 0.00 0.00 0.00 58 1016.2
20260831203020 91 90 1.0 5.0 0.00 0.00 0.00 59 1016.3
20260831201527 91 101 0.0 7.0 0.00 0.00 0.00 60 1016.5
20260831200032 91 360 0.0 7.0 0.00 0.00 0.00 60 1016.7
20260831194556 91 71 3.0 8.0 0.00 0.00 0.00 60 1016.7
20260831193054 91 111 0.0 7.0 0.00 0.00 0.00 62 1016.9
20260831191535 90 81 1.0 6.0 0.00 0.00 0.00 63 1017.0
20260831190044 90 131 1.0 5.0 0.00 0.00 0.00 63 1017.2
20260831184521 89 105 0.0 5.0 0.00 0.00 0.00 64 1017.4
20260831183013 89 112 2.0 5.0 0.00 0.00 0.00 64 1017.6
20260831181556 89 71 0.0 4.0 0.00 0.00 0.00 67 1017.7
20260831180056 88 113 0.0 4.0 0.00 0.00 0.00 67 1018.0
20260831174538 88 328 2.0 5.0 0.00 0.00 0.00 68 1018.1
20260831173040 87 113 0.0 4.0 0.00 0.00 0.00 69 1018.2
20260831171519 86 105 1.0 3.0 0.00 0.00 0.00 70 1018.5
20260831170022 86 67 0.0 4.0 0.00 0.00 0.00 72 1018.6
20260831164504 86 88 0.0 2.0 0.00 0.00 0.00 75 1018.7
20260831163003 86 24 0.0 3.0 0.00 0.00 0.00 75 1018.9
20260831161543 86 19 1.0 4.0 0.00 0.00 0.00 75 1019.0
20260831160047 85 153 0.0 0.0 0.00 0.00 0.00 79 1019.1
20260831154526 84 152 0.0 2.0 0.00 0.00 0.00 80 1019.2
20260831153024 83 182 0.0 2.0 0.00 0.00 0.00 81 1019.1
20260831151517 82 180 0.0 0.0 0.00 0.00 0.00 84 1019.1
20260831150005 81 253 0.0 1.0 0.00 0.00 0.00 86 1019.1
20260831144551 80 227 0.0 1.0 0.00 0.00 0.00 87 1019.2
20260831143056 79 229 0.0 0.0 0.00 0.00 0.00 89 1019.1
20260831141530 78 225 0.0 2.0 0.00 0.00 0.00 90 1019.0
20260831140038 77 225 0.0 0.0 0.00 0.00 0.00 92 1019.2
20260831134511 77 225 0.0 1.0 0.00 0.00 0.00 92 1019.1
20260831133010 76 92 0.0 0.0 0.00 0.00 0.00 94 1019.2
20260831131556 75 92 0.0 0.0 0.00 0.00 0.00 94 1019.3
20260831130058 74 92 0.0 0.0 0.00 0.00 0.00 95 1019.2
20260831124544 73 92 0.0 0.0 0.00 0.00 0.00 95 1018.9
20260831123031 73 92 0.0 0.0 0.00 0.00 0.00 94 1018.8
20260831121512 72 92 0.0 0.0 0.00 0.00 0.00 95 1018.6
20260831120010 72 92 0.0 0.0 0.00 0.00 0.00 94 1018.3
20260831114550 72 92 0.0 0.0 0.00 0.00 0.00 94 1018.1
20260831113108 72 92 0.0 0.0 0.00 0.00 0.00 94 1017.8
20260831111529 72 92 0.0 0.0 0.00 0.00 0.00 94 1017.6
20260831110028 72 92 0.0 0.0 0.00 0.00 0.00 94 1017.5
20260831104514 72 92 0.0 0.0 0.00 0.00 0.00 94 1017.4
20260831103014 72 92 0.0 0.0 0.00 0.00 0.00 94 1017.3
20260831101513 72 92 0.0 0.0 0.00 0.00 0.00 93 1017.3
20260831100012 72 92 0.0 0.0 0.00 0.00 0.00 93 1017.2
20260831094510 72 92 0.0 0.0 0.00 0.00 0.00 93 1017.1
20260831093008 73 92 0.0 0.0 0.00 0.00 0.00 93 1017.1
20260831091508 73 92 0.0 0.0 0.00 0.00 0.00 93 1017.0
20260831090008 73 92 0.0 0.0 0.00 0.00 0.00 92 1016.9
20260831084549 73 92 0.0 0.0 0.00 0.00 0.00 92 1016.8
20260831083050 73 92 0.0 0.0 0.00 0.00 0.00 92 1016.7
20260831081529 74 92 0.0 0.0 0.00 0.00 0.00 92 1016.6
20260831080034 74 92 0.0 0.0 0.00 0.00 0.00 92 1016.6
20260831074512 74 92 0.0 0.0 0.00 0.00 0.00 92 1016.6
20260831073010 74 92 0.0 0.0 0.00 0.00 0.00 92 1016.6